Weather Roundup
Issued by NWS Chicago, IL

Home | Current Version | Previous Version | Graphics & Text | Print | Product List | Glossary On
Versions: 1 2 3 4 5 6 7 8 9 10 11 12 13 14 15 16 17 18 19 20 21 22 23 24 25 26 27 28 29 30 31 32 33 34 35 36 37 38 39 40 41 42 43 44 45 46 47 48 49 50
000
NZUS59 KLOT 200508
HRRLOT

CHICAGO AREA WEATHER ROUNDUP
NATIONAL WEATHER SERVICE CHICAGO/ROMEOVILLE IL
1100 PM CST THU JAN 19 2017

NOTE: "FAIR" INDICATES FEW OR NO CLOUDS BELOW 12,000 FEET WITH NO
SIGNIFICANT WEATHER AND/OR OBSTRUCTIONS TO VISIBILITY.

* THESE STATIONS ARE NOT UNDER NWS QUALITY CONTROL. THEY ALSO MAY NOT
  REPORT WEATHER SUCH AS PRECIPITATION OR FOG.

ILZ005-006-012>014-019>023-200600-
NORTHEAST ILLINOIS

CITY           SKY/WX    TMP DP  RH WIND       PRES   REMARKS
OHARE          LGT RAIN  38  37  97 NE8       29.72F FOG
MIDWAY         LGT RAIN  38  36  92 E8        29.72F FOG
AURORA         CLOUDY    39  37  92 NE10      29.70F FOG
LANSING*       RAIN      38  38 100 NE7       29.73F
JOLIET*        RAIN      40  40  98 NE6       29.70F
WAUKEGAN       LGT RAIN  37  36  96 E7        29.76F FOG
DUPAGE AIRPORT LGT RAIN  39  36  89 NE7       29.71F FOG
WHEELING       LGT RAIN  37  36  96 NE6       29.75F FOG
KANKAKEE*      LGT RAIN  39  39  98 E9        29.70F
MORRIS*        CLOUDY    38  37  97 NE3       29.69F FOG
LEWIS AIRPORT* LGT RAIN  38  38 100 E10       29.70F
NORTHERLY ISL    N/A     35  33  92 NE6         N/A  WCI  30
$$

WIZ051-052-058>065-066-070>072-200600-
SOUTHEAST WISCONSIN

CITY           SKY/WX    TMP DP  RH WIND       PRES   REMARKS
MILWAUKEE      LGT RAIN  38  36  92 E8        29.78F VSB 1/2
KENOSHA*       LGT RAIN  37  36  96 E8        29.77F FOG
RACINE*        LGT RAIN  38  36  92 E8        29.79F FOG
WAUKESHA       LGT RAIN  34  34 100 E5        29.78F WCI  30
WEST BEND      DRZL/FOG  34  34 100 NE5       29.78F VSB 1/4 WCI  30
$$

INZ001>003-010>013-019-020-200600-
NORTHWEST INDIANA

CITY           SKY/WX    TMP DP  RH WIND       PRES   REMARKS
GARY*          RAIN      38  37  97 NE6       29.75F
MICHIGAN CITY* NOT AVBL
RENSSELAER*    NOT AVBL
VALPARAISO     LGT RAIN  39  39 100 E8        29.73F FOG
$$

LMZ740>746-200600-
SOUTHERN LAKE MICHIGAN

STATION/POSITION TIME  SKY/WX   TEMP WIND        PRES    VSBY
                                AIR  DIR/SP/G
                 (UTC)          (F)  (DEG/KT/KT) (MB)    (MI)
HARRISON CRIB    0440            38   90/ 10/ 10   N/A
BURNHAM HARBOR   0500            35   60/  7       N/A
CALUMET HARBOR   0442            35   40/  7/  9 1006.8F
BURNS HARBOR     0440            35   70/  5/  7 1008.5F
MICHIGAN CITY    0440            36   40/  8/ 10   N/A
$$

ABBREVIATIONS USED IN REMARKS
   TC - TEMPERATURE IN CELSIUS
  WCI - WIND CHILL INDEX
   HX - HEAT INDEX
  VSB - VISIBILITY
$$




USA.gov is the U.S. government's official web portal to all federal, state and local government web resources and services.